Regional Weather Roundup
Issued by NWS Green Bay, WI

Home | Current Version | Previous Version | Text Only | Print | Product List | Glossary On
Versions: 1 2 3 4 5 6 7 8 9 10 11 12 13 14 15 16 17 18 19 20 21 22 23 24 25 26 27 28 29 30 31 32 33 34 35 36 37 38 39 40 41 42 43 44 45 46 47 48 49 50
000
ASUS43 KGRB 010710
RWRGRB

NORTH-CENTRAL AND NORTHEAST WISCONSIN REGIONAL WEATHER ROUNDUP
NATIONAL WEATHER SERVICE GREEN BAY WI
200 AM CDT WED OCT 01 2014

WIZ005-009-010>012-018-019-010800-
NORTH CENTRAL WISCONSIN

CITY           SKY/WX    TMP DP  RH WIND       PRES   REMARKS
IRONWOOD       NOT AVBL
MANITOWISH WTR CLOUDY    43  43 100 SE8       29.97F
ARBOR VITAE    CLOUDY    44  42  92 SE12      29.98F
EAGLE RIVER    CLOUDY    44  43  99 SE8       30.00F
LAND O LAKES   CLOUDY    45  44  95 SE9       30.01F
RHINELANDER    CLOUDY    43  42  97 SE12      30.01F
PHILLIPS       CLOUDY    44  42  92 SE10      29.96F
ANTIGO         CLOUDY    42  42 100 S12       30.03F FOG
TOMAHAWK       CLOUDY    43  41  93 SE5       30.00F
MERRILL        CLOUDY    44  43  96 SE12      30.00F
$$

WIZ013-073-010800-
NORTHEAST WISCONSIN

CITY           SKY/WX    TMP DP  RH WIND       PRES   REMARKS
IRON MOUNTAIN  CLOUDY    47  46  97 S3        30.03F FOG
MARINETTE      NOT AVBL
OCONTO         CLOUDY    47  47 100 CALM      30.04F
$$

WIZ017-030-035>037-045-010800-
CENTRAL WISCONSIN

CITY           SKY/WX    TMP DP  RH WIND       PRES   REMARKS
MEDFORD        CLOUDY    43  42  96 SE9G16    29.98S FOG
WAUSAU         CLOUDY    44  42  93 SE12      30.00F FOG
MOSINEE        CLOUDY    43  43 100 SE7       30.02F FOG
MARSHFIELD     CLOUDY    46  43  89 SE13      30.00S
WISC RAPIDS    CLOUDY    47  43  86 SE10      30.02F
STEVENS POINT  CLOUDY    44  43  96 SE8       30.02F FOG
WAUPACA        CLOUDY    49  47  92 CALM      30.03F
SHAWANO        CLOUDY    48  46  90 CALM      30.05F FOG
CLINTONVILLE   CLOUDY    45  45 100 CALM      30.03F FOG
$$

WIZ038-039-048-051-010800-
FOX VALLEY

CITY           SKY/WX    TMP DP  RH WIND       PRES   REMARKS
NWS GREEN BAY  CLOUDY    48  47  96 CALM      30.04F FOG
APPLETON       CLOUDY    45  45 100 N3        30.04S FOG
OSHKOSH        CLOUDY    48  47  96 NE3       30.02F FOG
FOND DU LAC    CLOUDY    48  46  93 E7        30.02F
$$

WIZ022-050-052-010800-
EAST CENTRAL WISCONSIN

CITY           SKY/WX    TMP DP  RH WIND       PRES   REMARKS
STURGEON BAY   NOT AVBL
MANITOWOC      NOT AVBL
SHEBOYGAN      NOT AVBL
$$

LMZ563-521-522-541>543-010800-
LAKESHORE

STATION/POSITION TIME  TEMP    WIND        PRES    VSBY  WAVE
                       AIR SEA DIR/SP/G                  HT/PER
                 (UTC) (F)     (DEG/KT/KT) (MB)    (MI)  (FT/S)
SHEBOYGAN LKSHOR 0700   54 54  120/ 12/ 13 1017.3F
KEWAUNEE LKSHORE 0700   52     160/ 10/ 12 1016.7R
NORTHPORT PIER   0700   54     130/  9/ 11 1017.6S
N MID LAKE BUOY  0700   54 58  160/ 10/ 12 1018.1R         1/ 4
S GREEN BAY BUOY 0600   51     VRB  4/  6  1018.4F
SISTER BAY LKSHO 0600             CALM       N/A
CHAMBERS ISLAND  0700   52     140/  1/  3 1017.6S
MENOMINEE LKSHOR 0700   53     130/  8/ 10 1018.0F
$$


USA.gov is the U.S. government's official web portal to all federal, state and local government web resources and services.